This demonstration page uses our WeatherBlox Daily Observations layout. Learn more.

Left ArrowRight Arrow

39.08367, -84.50855

Hourly Observations for August 9, 2022

Temp ( °F °C ) Dew Point ( °F °C ) Humidity (%) Winds ( mph kmh ) Pressure ( in mb ) Visibility ( mi km ) Precip ( " mm )
12:53 am 00:53 Mostly Cloudy 78 25.6 74 23.3 87 87 WSW 3 6 29.99 1016 10 16 0.00 0.00
1:53 am 01:53 Cloudy 78 25.6 75 23.9 90 90 S 5 7 29.99 1016 10 16 0.00 0.00
2:01 am 02:01 Cloudy with Nearby Thunderstorms 77 25 75 23.9 94 94 S 5 7 29.98 1015 9 14 0.00 0.00
2:22 am 02:22 Mostly Cloudy 76 24.4 75 23.9 97 97 SW 3 6 29.99 1016 9 14 0.00 0.00
2:53 am 02:53 Mostly Clear 78 25.6 71 21.7 79 79 NW 7 11 29.99 1016 10 16 0.00 0.00
3:53 am 03:53 Clear 75 23.9 71 21.7 88 88 N 5 7 29.99 1016 10 16 0.00 0.00
4:53 am 04:53 Clear 73 22.8 72 22.2 96 96 Calm 29.99 1016 8 13 0.00 0.00
5:53 am 05:53 Clear 71 21.7 71 21.7 100 100 Calm 30.00 1016 7 11 0.00 0.00
6:53 am 06:53 Partly Cloudy with Mist and Fog 71 21.7 71 21.7 100 100 Calm 30.01 1016 6 10 0.00 0.00
7:53 am 07:53 Partly Cloudy with Mist and Fog 74 23.3 72 22.2 94 94 Calm 30.03 1017 6 10 0.00 0.00
8:53 am 08:53 Mostly Cloudy 77 25 74 23.3 90 90 Calm 30.04 1017 7 11 0.00 0.00
9:53 am 09:53 Cloudy 80 26.7 74 23.3 82 82 WNW 7 11 30.04 1017 8 13 0.00 0.00
10:53 am 10:53 Partly Cloudy 83 28.3 75 23.9 77 77 VRB 5 7 30.03 1017 9 14 0.00 0.00
11:53 am 11:53 Partly Cloudy 86 30 76 24.4 72 72 SSW 9 15 30.03 1017 8 13 0.00 0.00
12:09 pm 12:09 Cloudy 84 28.9 74 23.3 72 72 VRB 7 11 30.02 1017 8 13 0.00 0.00
12:53 pm 12:53 Mostly Cloudy 84 28.9 73 22.8 70 70 W 10 17 30.03 1017 8 13 0.00 0.00
1:00 pm 13:00 Mostly Cloudy 84 28.9 74 23.3 72 72 WSW 9 15 30.02 1017 7 11 0.00 0.00
1:43 pm 13:43 Mostly Cloudy with Nearby Thunderstorms 88 31.1 74 23.3 63 63 SW 12 19 30.01 1016 9 14 0.00 0.00
1:53 pm 13:53 Mostly Cloudy with Nearby Thunderstorms 88 31.1 73 22.8 61 61 WSW 13 20 30.02 1017 10 16 0.00 0.00
2:01 pm 14:01 Mostly Cloudy 89 31.7 73 22.8 59 59 W 13 20 30.00 1016 10 16 0.00 0.00
2:53 pm 14:53 Cloudy 80 26.7 71 21.7 74 74 NW 12 19 30.02 1017 10 16 0.00 0.00
3:53 pm 15:53 Partly Cloudy 86 30 72 22.2 63 63 NW 7 11 30.00 1016 10 16 0.00 0.00
4:53 pm 16:53 Mostly Sunny 88 31.1 71 21.7 57 57 NNW 8 13 29.99 1016 10 16 0.00 0.00
5:53 pm 17:53 Partly Cloudy 86 30 70 21.1 59 59 NNW 8 13 29.99 1016 10 16 0.00 0.00
6:53 pm 18:53 Mostly Sunny 83 28.3 71 21.7 67 67 N 8 13 29.99 1016 10 16 0.00 0.00
7:53 pm 19:53 Mostly Cloudy 82 27.8 71 21.7 69 69 NNE 7 11 30.00 1016 10 16 0.00 0.00
8:38 pm 20:38 Mostly Cloudy with Nearby Thunderstorms 80 26.7 72 22.2 76 76 SSW 14 22 30.02 1017 10 16 0.00 0.00
8:53 pm 20:53 Cloudy 77 25 70 21.1 79 79 S 15 24 30.04 1017 10 16 0.00 0.00
9:00 pm 21:00 Cloudy 77 25 70 21.1 79 79 S 12 19 30.03 1017 10 16 0.00 0.00
9:16 pm 21:16 Cloudy with Nearby Thunderstorms 76 24.4 69 20.6 79 79 S 12 19 30.04 1017 10 16 0.00 0.00
9:53 pm 21:53 Cloudy with Nearby Thunderstorms 75 23.9 71 21.7 88 88 SW 7 11 30.07 1018 10 16 0.00 0.00
10:11 pm 22:11 Cloudy with Nearby Thunderstorms 74 23.3 72 22.2 94 94 S 9 15 30.07 1018 9 14 0.01 0.13
10:18 pm 22:18 Cloudy with Nearby Thunderstorms 74 23.3 72 22.2 94 94 S 5 7 30.07 1018 2 2 0.06 1.52
10:25 pm 22:25 Cloudy with Nearby Thunderstorms 73 22.8 73 22.8 100 100 Calm 30.07 1018 3 5 0.10 2.54
10:34 pm 22:34 Cloudy with Nearby Thunderstorms 73 22.8 73 22.8 100 100 Calm 30.06 1018 3 5 0.13 3.30
10:41 pm 22:41 Cloudy with Thunderstorms 74 23.3 72 22.2 94 94 Calm 30.06 1018 3 5 0.14 3.56
10:53 pm 22:53 Mostly Cloudy with Light Rain 73 22.8 72 22.2 96 96 SSE 3 6 30.06 1018 4 6 0.15 3.81
11:53 pm 23:53 Mostly Clear with Light Rain 73 22.8 72 22.2 96 96 Calm 30.07 1018 6 10 0.10 2.54

Powered by AerisWeather